Regional Weather Roundup
Issued by NWS Green Bay, WI

Home | Current Version | Previous Version | Graphics & Text | Print | Product List | Glossary Off
Versions: 1 2 3 4 5 6 7 8 9 10 11 12 13 14 15 16 17 18 19 20 21 22 23 24 25 26 27 28 29 30 31 32 33 34 35 36 37 38 39 40 41 42 43 44 45 46 47 48 49 50

000
ASUS43 KGRB 020410
RWRGRB

NORTH-CENTRAL AND NORTHEAST WISCONSIN REGIONAL WEATHER ROUNDUP
NATIONAL WEATHER SERVICE GREEN BAY WI
1100 PM CDT FRI AUG 01 2014

WIZ005-009-010>012-018-019-020500-
NORTH CENTRAL WISCONSIN

CITY           SKY/WX    TMP DP  RH WIND       PRES   REMARKS
IRONWOOD       CLEAR     54  52  94 E3        30.10S
MANITOWISH WTR CLEAR     53  53 100 CALM      30.13S
ARBOR VITAE    NOT AVBL
EAGLE RIVER    CLEAR     55  55 100 CALM      30.13S
LAND O LAKES   CLEAR     52  52  99 CALM      30.15R FOG
RHINELANDER    CLEAR     57  53  86 CALM      30.14R
PHILLIPS       CLEAR     57  55  94 CALM      30.12S
ANTIGO         CLEAR     58  56  91 CALM      30.13S
TOMAHAWK       CLEAR     54  53  94 CALM      30.13S FOG
MERRILL        CLEAR     57  57  98 CALM      30.12S FOG
$$

WIZ013-073-020500-
NORTHEAST WISCONSIN

CITY           SKY/WX    TMP DP  RH WIND       PRES   REMARKS
IRON MOUNTAIN  PTCLDY    63  53  70 CALM      30.11S
MARINETTE      CLEAR     64  59  82 N3        30.08S
OCONTO         CLEAR     61  61 100 CALM      30.08S
$$

WIZ017-030-035>037-045-020500-
CENTRAL WISCONSIN

CITY           SKY/WX    TMP DP  RH WIND       PRES   REMARKS
MEDFORD        CLEAR     57  57  99 CALM      30.13S FOG
WAUSAU         CLEAR     62  60  93 CALM      30.10S
MOSINEE        CLEAR     57  55  94 CALM      30.13S
MARSHFIELD     CLEAR     60  58  92 N6        30.11S
WISC RAPIDS    CLEAR     58  56  93 CALM      30.11S
STEVENS POINT  CLEAR     56  55  97 CALM      30.12S
WAUPACA        CLEAR     59  56  88 CALM      30.12R
SHAWANO        MOCLDY    65  60  82 SW3       30.10R
CLINTONVILLE   CLEAR     59  57  94 CALM      30.10R
$$

WIZ038-039-048-051-020500-
FOX VALLEY

CITY           SKY/WX    TMP DP  RH WIND       PRES   REMARKS
NWS GREEN BAY  CLEAR     63  62  97 CALM      30.09S
APPLETON       MOCLDY    61  59  94 NW6       30.11R
OSHKOSH        PTCLDY    64  59  83 CALM      30.10R HAZE
FOND DU LAC    MOCLDY    62  56  80 W5        30.11R
$$

WIZ022-050-052-020500-
EAST CENTRAL WISCONSIN

CITY           SKY/WX    TMP DP  RH WIND       PRES   REMARKS
STURGEON BAY   CLEAR     61  57  88 NE5       30.09F
MANITOWOC      PTCLDY    63  61  93 W3        30.09S
SHEBOYGAN      PTCLDY    63  58  83 W5        30.10R
$$

LMZ563-521-522-541>543-020500-
LAKESHORE

STATION/POSITION TIME  TEMP    WIND        PRES    VSBY  WAVE
                       AIR SEA DIR/SP/G                  HT/PER
                 (UTC) (F)     (DEG/KT/KT) (MB)    (MI)  (FT/S)
SHEBOYGAN LKSHOR 0300   71     270/  9/ 10 1018.4F
KEWAUNEE LKSHORE 0300                      1017.9
ALGOMA MARINA    0400             CALM       N/A
TWO RIVERS CG    0300   61 61                N/A           1
NORTHPORT PIER   0400   64      80/  3/  4 1019.0S
N MID LAKE BUOY  0400   63 60   CALM  /  2 1018.8F         0
S GREEN BAY BUOY 0300   70 69  140/  4     1019.5R
SISTER BAY LKSHO 0300   61        CALM       N/A
CHAMBERS ISLAND  0400   65     110/  2/  7 1018.6S
MENOMINEE LKSHOR 0300                      1019.1
$$



USA.gov is the U.S. government's official web portal to all federal, state and local government web resources and services.